Temperature
19 19 19 19 19 20 20 20 20 20 20 20 20 20 20 20 20 20 20 20 20 20 20 20 20 20 20 19 19 19 19 19 19 19 19 19 19 19 19 19 19 19 19
20 19 19 19 19 20 20 20 20 20 20 20 20 20 20 20 20 20 20 20 20 20 20 20 20 20 19 19 19 19 19 19 19 19 19 19 19 19 19 19 19 19 19
20 20 20 20 20 20 20 20 20 20 20 20 20 20 20 20 20 20 20 20 20 20 20 20 20 20 19 19 19 19 19 19 19 19 19 19 19 19 19 19 19 19 18
21 20 20 20 20 20 20 20 20 20 20 20 20 20 20 20 20 20 20 20 20 20 20 20 20 19 19 19 19 19 19 19 19 19 19 19 19 19 19 19 19 19 19
21 20 20 20 20 20 20 20 19 19 19 19 19 19 19 20 20 20 20 20 19 19 19 19 19 19 19 19 19 19 19 19 19 19 19 19 19 19 19 19 19 19 19
21 20 20 20 20 20 20 19 19 19 19 19 19 19 19 19 19 19 19 19 19 19 19 19 19 19 19 19 19 18 18 19 19 19 19 19 19 19 19 19 19 19 19
21 20 20 20 20 20 19 19 19 19 19 19 19 19 19 19 19 19 19 19 19 19 19 19 19 19 19 19 18 18 18 18 18 19 19 19 19 19 19 19 19 19 19
21 21 20 20 20 20 20 19 19 19 19 19 19 19 19 19 19 19 19 19 19 19 19 19 19 19 19 18 18 18 18 18 18 18 18 19 19 19 18 18 18 18 18
21 21 21 20 20 20 20 19 19 19 19 19 19 19 19 19 19 19 19 19 19 19 19 19 19 19 19 18 18 18 18 18 18 18 18 18 18 18 18 18 18 18 18
21 21 21 21 20 20 20 19 19 19 19 19 19 19 19 19 19 19 19 19 19 19 19 19 19 19 19 18 18 18 18 18 18 18 18 18 18 18 18 18 18 18 18
21 21 21 21 20 20 20 19 19 19 19 19 19 19 18 18 18 18 18 19 19 19 19 19 19 19 19 18 18 18 18 18 18 18 18 18 18 18 18 18 18 18 18
21 21 21 21 21 20 20 20 19 19 19 19 19 19 18 18 18 18 18 18 19 19 19 19 19 19 19 18 18 18 18 18 18 17 18 18 18 18 18 18 18 18 18
22 21 21 21 21 21 20 20 19 19 19 19 19 19 18 18 18 18 18 19 19 19 19 19 19 18 18 18 18 18 18 18 18 18 18 18 18 18 18 18 18 18 18
22 21 21 21 21 21 20 20 20 19 19 19 19 19 18 18 18 18 18 18 19 19 19 18 18 18 18 18 18 18 18 18 18 18 18 18 18 18 18 18 18 18 18
22 22 21 21 21 21 20 20 20 20 19 19 19 19 19 18 18 18 18 18 18 18 18 18 18 18 18 18 18 18 18 18 18 18 18 17 18 18 18 18 18 18 18
22 21 21 21 21 21 21 20 20 20 20 19 19 19 19 18 18 18 18 18 18 18 18 18 18 18 18 18 18 18 18 18 18 18 17 17 17 18 18 18 18 18 18
21 21 21 21 21 21 21 21 20 20 20 20 19 19 19 19 18 18 18 18 18 18 18 18 18 18 18 18 18 18 18 18 18 18 17 17 17 17 17 17 17 17 17
21 21 21 21 21 21 21 21 20 20 20 20 19 19 19 19 19 18 18 19 19 18 18 18 18 18 18 18 18 18 18 18 18 18 17 17 17 17 17 17 17 17 17
20 20 20 20 20 21 21 21 20 20 20 20 19 19 19 19 19 19 19 19 19 18 18 18 18 18 18 18 18 18 18 18 18 17 17 17 17 17 17 17 18 17 17
19 20 20 20 20 20 20 20 20 20 20 20 19 19 19 19 19 19 19 19 19 18 18 18 18 18 18 18 18 18 18 18 18 17 17 17 17 17 17 17 17 17 17
19 19 19 20 20 20 20 20 20 20 20 20 19 19 19 19 19 19 18 19 19 18 18 18 18 18 18 18 18 18 18 18 18 17 17 17 17 17 17 17 17 17 17
18 18 18 19 19 20 20 20 20 20 20 19 19 19 19 19 19 18 18 18 18 18 18 18 18 18 18 18 17 17 17 17 17 18 17 17 17 17 17 17 17 17 17
17 17 17 18 19 19 19 19 19 19 19 19 19 18 19 19 18 18 18 18 18 18 18 18 18 18 18 17 17 17 17 17 17 18 17 17 17 17 17 17 17 17 17
16 16 17 17 18 18 18 18 19 19 19 19 19 18 18 18 18 18 18 17 17 17 17 17 17 17 17 17 17 17 17 17 17 17 17 17 17 17 17 17 17 17 17
15 15 16 16 17 17 18 18 18 18 19 18 18 18 18 18 18 17 17 17 17 17 17 17 17 17 17 17 16 16 16 16 16 16 16 17 17 17 17 17 17 17 17
14 14 15 15 16 16 17 17 17 18 18 18 18 18 17 17 17 17 17 16 16 16 16 16 16 16 16 16 16 16 16 16 16 16 16 16 16 16 16 16 17 17 17
Wind_Speed
7 11 17 16 16 16 16 16 15 15 14 14 14 14 13 13 12 11 11 11 11 11 10 10 10 9 9 10 9 9 9 10 10 10 10 10 9 9 9 8 8 8 8
11 15 19 17 16 16 16 15 15 15 14 14 14 13 13 12 11 11 10 10 10 10 10 10 10 9 9 9 9 9 9 9 9 9 10 9 10 10 10 10 9 7 8
14 16 18 18 17 16 15 15 15 14 14 14 13 13 12 12 11 10 10 10 9 9 9 9 9 8 8 8 8 9 9 9 8 9 8 7 8 10 10 9 9 8 8
16 16 17 18 17 16 15 15 15 14 14 13 13 12 12 11 11 10 9 9 9 9 9 8 8 7 7 7 8 8 8 8 8 8 7 7 8 9 10 10 9 9 8
15 16 17 18 17 16 15 14 15 14 14 13 13 12 11 10 10 9 9 9 9 8 8 8 7 7 6 6 6 6 6 7 7 7 8 8 7 8 9 9 9 9 9
13 15 17 18 17 15 14 14 14 14 14 13 12 11 11 10 10 9 9 9 9 8 8 7 6 6 5 5 5 5 5 6 6 6 7 6 6 7 7 8 8 9 9
13 15 17 18 16 15 14 14 14 14 13 13 12 11 11 10 9 9 8 8 8 8 7 7 6 5 5 4 4 4 5 5 6 7 6 5 5 6 6 7 7 8 8
16 14 16 18 17 15 15 14 14 14 14 13 12 11 11 10 9 9 8 8 7 7 6 6 5 5 4 4 4 3 4 4 5 6 6 5 4 5 6 6 6 7 7
14 14 13 16 16 16 15 14 15 14 14 14 13 12 11 11 10 9 8 8 7 6 5 5 4 4 3 2 2 2 3 3 6 7 5 4 5 6 6 6 6 6 6
12 12 11 14 15 14 15 15 15 15 15 14 14 13 12 11 11 10 9 8 7 6 5 4 4 3 3 2 1 1 3 5 6 6 5 5 6 6 6 6 6 6 6
12 11 11 11 13 14 14 15 16 16 15 15 14 14 13 11 11 11 10 10 9 8 7 6 5 4 3 3 3 1 3 4 6 6 6 6 7 6 6 5 5 5 5
15 14 12 12 12 13 14 14 13 14 15 14 14 14 13 12 11 11 11 11 10 9 8 7 7 6 5 5 5 3 2 5 7 6 7 8 8 7 6 6 5 5 5
17 16 15 14 13 13 9 11 11 11 12 13 15 15 14 12 11 10 10 11 10 10 8 7 7 7 6 6 5 3 2 5 8 8 8 9 8 7 7 6 5 5 5
14 16 16 16 14 13 11 10 10 9 9 10 13 15 12 8 7 8 8 9 9 9 7 7 6 7 8 9 8 5 4 6 9 9 9 9 8 7 7 6 5 5 5
11 14 15 17 16 14 11 9 10 9 10 13 14 15 14 8 6 7 7 9 9 10 8 6 6 6 6 7 6 6 7 9 10 10 9 10 8 7 7 6 6 5 4
6 8 11 14 16 15 13 11 10 11 12 13 13 15 17 12 9 7 6 7 8 11 10 7 6 4 4 3 4 6 8 11 11 10 10 9 9 8 7 7 6 5 5
0 2 5 10 12 14 14 13 10 11 12 10 12 16 17 15 12 10 8 8 8 12 10 6 4 4 3 3 4 5 6 9 10 11 11 10 9 9 8 8 7 7 6
8 6 3 4 8 12 12 12 9 10 10 10 12 14 16 17 14 10 8 8 10 10 6 4 4 3 3 3 3 3 4 5 8 10 10 10 10 9 9 9 9 8 7
11 10 8 5 3 7 9 10 9 8 8 9 10 10 13 15 14 9 6 6 8 5 4 5 3 3 3 2 3 2 2 4 5 7 7 10 11 10 10 10 10 9 8
11 11 10 8 5 3 4 4 5 7 7 6 7 8 10 11 12 9 5 6 7 5 4 4 4 3 3 3 2 2 0 1 2 4 6 9 11 12 12 10 10 10 10
11 11 11 10 8 4 1 3 4 5 5 5 5 7 9 8 9 8 6 6 6 6 5 5 4 4 2 2 3 2 3 2 2 3 4 5 7 11 12 12 11 10 10
11 10 10 10 9 6 3 3 3 4 3 4 4 5 7 7 8 7 7 6 6 5 5 4 4 3 2 2 3 2 2 4 3 1 2 5 7 8 9 12 12 12 11
12 11 10 10 10 8 6 2 1 1 1 2 3 3 3 6 7 7 5 5 6 5 5 5 5 5 3 2 2 4 4 4 3 3 2 2 5 6 6 9 12 13 13
12 11 10 10 9 8 5 3 2 4 5 5 4 4 3 4 6 7 6 4 4 4 4 4 4 3 4 3 2 2 3 4 3 2 3 2 2 5 6 5 8 13 16
12 10 10 9 9 8 6 3 3 3 4 4 5 7 5 4 5 6 6 5 4 3 4 4 4 3 3 3 3 3 2 2 2 3 3 3 2 2 3 4 5 9 15
10 9 9 9 9 8 6 5 2 1 3 5 6 7 5 4 4 5 4 4 4 3 3 3 4 4 3 3 3 3 3 3 4 4 4 4 3 3 3 3 4 6 12
Wind_Direction
152 159 150 146 140 135 131 130 127 123 120 116 113 110 107 102 98 96 94 93 93 93 92 92 92 93 94 94 95 96 95 90 85 83 80 75 71 66 65 79 98 102 107
152 155 150 146 141 137 134 132 129 127 124 120 117 114 111 109 105 102 98 96 95 94 91 89 88 89 92 97 100 96 91 87 86 85 81 75 72 70 73 82 94 105 108
148 151 149 148 144 141 138 135 133 131 128 125 121 117 115 114 113 109 105 102 99 96 94 92 90 88 90 95 98 94 88 86 85 85 88 82 76 74 75 81 90 98 107
147 149 151 150 147 144 142 140 138 135 132 129 125 123 121 118 116 114 110 109 107 104 101 99 98 97 96 97 97 94 89 87 84 90 96 91 82 78 77 78 86 92 97
146 150 154 153 151 149 147 146 142 139 136 133 130 128 126 123 120 117 114 112 110 109 107 104 102 103 104 104 102 98 96 92 88 95 105 99 91 89 85 82 83 89 92
147 150 156 155 154 153 152 149 146 144 141 139 138 136 134 131 126 121 118 117 114 112 109 107 105 108 112 114 112 106 103 96 94 111 118 112 104 102 98 95 91 91 94
147 153 159 159 159 158 156 155 152 150 148 147 146 145 144 142 138 132 126 123 121 119 117 112 110 113 116 120 120 114 110 108 117 125 128 119 117 118 114 106 99 96 99
152 157 162 164 164 164 163 162 161 159 156 155 155 154 154 152 147 144 138 133 130 127 126 122 118 121 122 124 123 115 106 114 125 141 140 137 137 125 124 116 109 103 100
155 158 161 167 169 170 170 169 168 167 165 163 163 163 162 160 158 156 152 150 147 145 143 140 140 141 142 139 133 117 88 95 141 154 157 160 154 137 132 125 118 109 102
159 162 164 168 171 173 175 176 175 174 173 171 171 172 171 170 171 171 169 169 169 170 171 173 177 180 187 196 184 118 86 90 147 156 155 164 154 141 135 128 123 117 109
167 171 172 173 175 176 177 182 181 180 180 179 179 180 179 179 180 183 185 187 188 191 195 201 211 222 235 255 269 280 89 105 138 152 162 162 151 144 137 131 129 127 124
178 182 181 182 181 180 183 183 182 182 183 182 183 184 183 186 191 195 201 202 203 205 211 218 227 239 251 267 280 293 120 146 154 162 167 159 153 147 138 132 132 138 136
184 186 187 187 185 183 186 179 183 183 182 186 189 191 189 192 203 211 209 212 212 214 220 233 241 248 254 259 263 253 195 173 171 169 171 164 157 151 145 138 138 142 145
184 191 190 190 188 188 185 182 184 184 187 193 198 199 193 194 203 200 200 206 209 215 218 230 239 247 252 252 246 230 195 163 167 168 175 169 165 160 156 153 150 149 151
192 195 192 192 191 188 184 185 186 190 193 198 201 203 198 193 193 189 200 207 215 219 220 222 227 234 240 241 228 196 172 167 168 172 179 176 171 171 169 166 166 166 167
192 200 197 193 191 186 185 187 189 193 195 197 201 205 202 197 191 191 197 204 216 221 222 219 218 215 212 192 168 157 158 165 173 175 179 180 179 179 180 180 177 178 178
290 227 209 196 191 189 189 190 189 193 193 197 204 208 206 202 196 194 199 203 211 218 219 211 210 196 182 160 146 148 151 163 172 178 181 181 182 182 182 183 181 180 184
20 8 329 221 200 196 194 195 192 193 192 197 203 206 207 206 201 188 190 196 200 201 195 180 168 155 155 147 153 162 155 160 174 182 182 183 183 185 188 187 184 184 186
20 11 359 343 248 214 202 197 196 191 191 196 200 202 203 203 197 182 181 180 176 170 171 175 150 143 145 154 173 173 177 171 176 184 186 189 191 191 193 193 188 186 186
15 12 5 353 343 276 229 208 196 187 188 189 191 193 192 192 187 175 168 162 154 147 153 150 136 124 132 147 127 97 282 242 194 186 191 194 197 197 198 196 194 194 195
12 10 3 352 343 338 270 217 204 202 191 187 188 180 177 171 171 166 163 156 149 151 158 150 132 131 127 121 91 37 341 316 252 217 193 184 196 200 200 201 201 200 201
3 3 357 348 338 329 303 250 218 198 189 186 185 173 170 161 156 167 161 160 153 148 148 146 140 143 152 136 130 111 345 330 312 278 188 189 202 200 201 207 206 207 203
354 354 351 340 334 328 320 305 257 146 121 161 170 168 166 155 148 148 155 152 152 152 163 167 160 154 165 179 155 148 162 222 283 313 286 205 196 196 203 206 208 211 208
343 345 345 342 337 330 321 293 229 203 197 192 176 158 147 137 135 135 139 144 153 161 171 176 165 160 157 178 190 193 175 160 176 284 317 314 225 203 204 207 209 209 208
338 342 343 343 345 339 333 311 255 224 206 169 153 145 144 139 128 129 136 137 148 170 184 178 163 167 170 179 182 176 176 185 176 178 257 301 318 259 222 211 202 206 206
342 345 347 347 347 349 353 351 353 155 161 154 155 157 155 146 131 136 141 148 154 162 178 181 182 179 180 195 199 188 179 182 193 187 212 239 259 276 262 230 205 203 203
Height
1535 1537 1539 1540 1542 1543 1544 1545 1546 1547 1547 1548 1548 1549 1549 1550 1550 1551 1551 1551 1552 1552 1553 1553 1554 1554 1555 1555 1556 1556 1557 1557 1557 1557 1557 1557 1557 1556 1556 1556 1555 1555 1555
1534 1537 1539 1541 1542 1544 1545 1546 1547 1547 1548 1549 1549 1550 1550 1551 1551 1551 1552 1552 1553 1553 1553 1554 1555 1555 1556 1556 1557 1557 1557 1558 1558 1558 1558 1558 1558 1558 1557 1557 1557 1556 1556
1534 1537 1539 1541 1543 1544 1545 1546 1547 1548 1548 1549 1550 1550 1551 1551 1552 1552 1552 1553 1553 1553 1554 1554 1555 1556 1556 1557 1557 1558 1558 1559 1559 1559 1559 1559 1559 1559 1558 1558 1558 1557 1557
1535 1537 1539 1541 1543 1544 1546 1546 1547 1548 1549 1549 1550 1551 1551 1552 1552 1553 1553 1553 1554 1554 1554 1555 1555 1556 1557 1557 1558 1558 1559 1560 1560 1560 1560 1560 1560 1560 1559 1559 1559 1559 1558
1536 1538 1540 1542 1543 1545 1546 1547 1548 1548 1549 1550 1551 1551 1552 1552 1553 1553 1554 1554 1554 1554 1555 1555 1555 1556 1557 1558 1558 1559 1560 1560 1561 1561 1561 1561 1561 1561 1561 1560 1560 1560 1559
1537 1539 1541 1542 1544 1545 1546 1547 1548 1549 1549 1550 1551 1552 1552 1553 1553 1554 1554 1554 1554 1554 1555 1555 1556 1556 1557 1558 1559 1559 1560 1561 1561 1561 1561 1562 1562 1562 1562 1562 1562 1561 1561
1537 1539 1541 1543 1544 1545 1546 1547 1548 1549 1550 1550 1551 1552 1552 1553 1553 1554 1554 1554 1554 1555 1555 1555 1556 1556 1557 1558 1559 1560 1560 1561 1562 1562 1562 1562 1562 1562 1563 1563 1562 1562 1562
1538 1540 1541 1543 1544 1545 1546 1547 1548 1549 1550 1550 1551 1552 1552 1553 1553 1554 1554 1554 1555 1555 1555 1556 1556 1557 1557 1558 1559 1560 1561 1561 1562 1562 1563 1563 1563 1563 1563 1563 1563 1563 1563
1538 1540 1541 1543 1544 1545 1546 1547 1548 1548 1549 1550 1551 1552 1552 1553 1553 1554 1554 1554 1555 1555 1556 1556 1557 1557 1558 1559 1560 1561 1561 1562 1562 1563 1563 1563 1564 1563 1564 1564 1564 1564 1564
1538 1540 1541 1542 1543 1544 1545 1546 1547 1548 1549 1550 1551 1551 1552 1553 1553 1554 1554 1554 1555 1555 1556 1556 1557 1558 1558 1559 1560 1561 1562 1562 1563 1563 1564 1564 1564 1564 1564 1564 1564 1564 1564
1538 1539 1540 1541 1542 1543 1544 1545 1546 1547 1548 1549 1550 1551 1552 1552 1553 1554 1554 1554 1555 1555 1556 1557 1557 1558 1559 1560 1561 1562 1562 1563 1563 1564 1564 1564 1564 1564 1564 1564 1564 1565 1565
1536 1537 1539 1540 1541 1542 1543 1544 1545 1546 1547 1548 1549 1550 1551 1552 1553 1553 1554 1554 1554 1555 1556 1557 1558 1559 1560 1560 1561 1562 1563 1563 1563 1564 1564 1564 1564 1564 1564 1564 1564 1565 1565
1533 1535 1537 1538 1539 1540 1541 1542 1543 1544 1545 1546 1547 1549 1550 1551 1552 1553 1553 1554 1554 1555 1556 1557 1558 1559 1560 1561 1561 1562 1563 1563 1563 1564 1564 1564 1564 1563 1564 1564 1564 1565 1565
1532 1533 1535 1536 1537 1538 1539 1540 1541 1542 1543 1544 1545 1547 1548 1549 1551 1552 1553 1554 1555 1555 1556 1557 1558 1559 1560 1560 1561 1562 1562 1563 1563 1564 1564 1563 1563 1563 1563 1563 1564 1564 1565
1531 1531 1532 1533 1535 1536 1537 1538 1539 1540 1541 1543 1544 1545 1546 1548 1549 1551 1552 1554 1555 1556 1557 1557 1558 1559 1559 1560 1560 1561 1561 1562 1563 1563 1563 1562 1562 1562 1562 1563 1563 1564 1564
1529 1530 1530 1531 1532 1533 1534 1535 1537 1538 1539 1540 1542 1543 1544 1546 1547 1549 1551 1553 1554 1555 1556 1557 1558 1558 1559 1560 1560 1561 1561 1562 1562 1562 1562 1562 1561 1561 1562 1562 1563 1563 1564
1528 1528 1529 1529 1529 1530 1531 1533 1534 1536 1537 1538 1539 1541 1542 1544 1546 1547 1549 1551 1553 1554 1555 1556 1557 1558 1559 1559 1560 1560 1561 1561 1561 1562 1562 1562 1562 1561 1561 1561 1562 1562 1563
1526 1526 1527 1528 1527 1528 1528 1529 1530 1532 1533 1535 1537 1538 1540 1542 1543 1545 1547 1549 1550 1552 1554 1555 1556 1557 1558 1559 1559 1560 1560 1560 1561 1561 1561 1561 1561 1561 1561 1561 1561 1562 1562
1525 1525 1525 1525 1525 1525 1525 1526 1527 1529 1530 1532 1533 1535 1537 1539 1541 1543 1545 1546 1548 1550 1552 1553 1554 1555 1556 1557 1558 1559 1559 1560 1560 1560 1560 1561 1561 1561 1561 1561 1561 1561 1561
1525 1524 1522 1522 1522 1523 1523 1524 1524 1525 1526 1528 1529 1532 1534 1536 1538 1540 1542 1544 1545 1547 1549 1551 1552 1553 1554 1555 1556 1557 1558 1558 1559 1559 1559 1559 1560 1560 1560 1561 1561 1561 1561
1524 1522 1520 1519 1519 1519 1519 1520 1520 1521 1522 1524 1526 1528 1530 1532 1534 1536 1539 1541 1543 1544 1546 1548 1549 1551 1552 1553 1554 1555 1556 1556 1557 1557 1557 1558 1558 1559 1559 1560 1560 1560 1560
1522 1520 1518 1517 1516 1516 1515 1516 1516 1517 1518 1519 1522 1525 1526 1529 1531 1533 1536 1538 1539 1542 1543 1545 1546 1548 1549 1550 1551 1552 1553 1554 1554 1555 1555 1555 1556 1557 1557 1558 1558 1559 1559
1520 1518 1516 1514 1512 1512 1511 1512 1513 1513 1515 1516 1518 1520 1522 1524 1527 1530 1532 1534 1536 1538 1540 1541 1542 1543 1545 1547 1548 1549 1550 1550 1551 1552 1552 1552 1553 1554 1555 1555 1556 1557 1557
1518 1515 1513 1511 1509 1508 1507 1507 1507 1508 1509 1511 1513 1515 1518 1520 1522 1525 1528 1530 1532 1534 1536 1537 1538 1539 1541 1542 1544 1545 1546 1547 1548 1548 1549 1550 1550 1551 1552 1553 1553 1554 1555
1517 1513 1511 1508 1506 1504 1503 1503 1503 1504 1505 1506 1509 1511 1513 1516 1517 1520 1522 1525 1527 1529 1531 1533 1534 1535 1537 1538 1539 1540 1541 1543 1544 1545 1546 1547 1547 1548 1549 1550 1550 1551 1552
1516 1512 1509 1506 1504 1501 1500 1499 1499 1500 1501 1502 1504 1507 1509 1511 1512 1515 1518 1520 1522 1525 1527 1529 1530 1532 1533 1534 1535 1535 1537 1538 1539 1541 1542 1543 1544 1545 1546 1547 1547 1548 1549